STARLINK-11134, 59956

Orbit data source: Space-Track

STARLINK-11134, 59956 is a payload satellite owned by SpaceX/Seattle (US) in LEO that was launched on Wed, 05 Jun 2024 UTC via an FALCON 9 launch vehicle from the Air Force Eastern Test Range (AFETR). Payload-class satellites include a variety of spacecraft equipped with specific instruments for various scientific and technological missions. These include communications satellites like Starlink; space stations such as the ISS; scientific satellites like the Hubble; Earth observation satellites from companies like Planet Labs, Umbra, and HawkEye 360; GPS; miniature CubeSats for education and research; and military/defense satellites.

Loading next visibility...
Identifier
59956, 2024-107M
Orbit
LEO
Last TLE update
10 hours ago
Origin
Manufacturer
SpaceX/Seattle
Mission
Operational spacecraft
Bus & Motor
STARLINK V2M, Unknown motor
Mass
730 kg wet, ~700 kg dry
Launch date (UTC)
2024-06-05 (11 months ago)
Launch vehicle
FALCON 9
Launch site
Air Force Eastern Test Range (AFETR)
Object type
Payload
Rocket body
Debris
Shape & HBR
Unknown
Radar Cross Section
Large (>1 m²)

Expand to show TLE details & history

TLE from 10 hours ago
0 STARLINK-11134
1 59956U 24107M   25128.99510066  .00002842  00000-0  28305-4 0  9990
2 59956  53.1587 313.0451 0000326  75.1081 284.9973 15.69702616 53974
Epoch: 2025-05-08T23:52Z
Definitive object data (Epoch: 2025-05-08T23:52:56.697Z)
Latitude
Longitude
87.75126°
Altitude
360.606 km
Speed
7.694 km/s
True Right ascension
20h 52m 10s
True Declination
0° 00' 00"
Sunlit
Object was in daylight at TLE epoch
Visualization TLE readout
Latitude
53.04638°
Longitude
-176.24454°
Altitude
366.026 km
Speed
7.696 km/s
Apparent Right ascension
04h 33m 06s
Apparent Declination
8° 36' 58"
Sunlit
Object is in daylight
Visualization observer readout
Local Sidereal Time
17:36:29
Azimuth
20.421° NNE
Elevation
-39.299°
Doppler factor
1
Orbital elements
Apogee altitude
360.228 km
Perigee altitude
359.789 km
Semi-major axis
6,738.146 km
Eccentricity
0.0000326
Inclination
53.1587°
RAAN
313.0451°
Arg. of periapsis
75.1081°
True anomaly
284.99369°
Mean anomaly
284.9973°
Eccentric anomaly
284.9955°
Mean motion
3.92403 °/min
BSTAR
0.000028305
Orbital period
91.74 mins
Loading maneuver chart data...
Loading SW <> Apogee altitude chart data...
Loading historical data...
Loading historical data...
Loading historical data...
Loading historical data...
Loading historical data...
Loading historical data...
Loading historical data...

STARLINK-11134 Visibility forecast

Observer location: undefined°, undefined°

Span
Click to sort rows by Start time (UTC) header in descending order
Start Az.
Max El. time (UTC)
Max El. Az.
Max El.
End time (UTC)
End Az.
4 mins2025-05-09 21:47:09.804Z309.442° NW2025-05-09 21:49:09.804Z134.842° SE42.408°2025-05-09 21:51:09.804Z131.617° SE
|